Tiempo cada hora Aberdare

Hoy, 30 Octubre, Viernes

Tiempo Temperatura Precipitaciones Viento Presión Humedad
00:00 +12°C° 0 mm 9 mps 735 mmHg 93%
01:00 +12°C° 0.3 mm 9 mps 736 mmHg 93%
02:00 +12°C° 0.3 mm 10 mps 736 mmHg 93%
03:00 +12°C° 0.3 mm 10 mps 736 mmHg 94%
04:00 +12°C° 1.3 mm 9 mps 736 mmHg 94%
05:00 +12°C° 1.3 mm 9 mps 736 mmHg 95%
06:00 +12°C° 0 mm 8 mps 736 mmHg 96%
07:00 +12°C° 0.8 mm 8 mps 736 mmHg 96%
08:00 +12°C° 0.8 mm 8 mps 737 mmHg 96%
09:00 +12°C° 0.8 mm 7 mps 737 mmHg 96%
10:00 +12°C° 0.6 mm 7 mps 738 mmHg 96%
11:00 +12°C° 0.6 mm 7 mps 738 mmHg 97%
12:00 +13°C° 0 mm 5 mps 739 mmHg 95%
13:00 +13°C° 0.1 mm 5 mps 739 mmHg 95%
14:00 +13°C° 0.1 mm 4 mps 739 mmHg 94%
15:00 +13°C° 0.1 mm 4 mps 740 mmHg 94%
16:00 +12°C° 0.2 mm 3 mps 740 mmHg 95%
17:00 +13°C° 0.2 mm 2 mps 740 mmHg 97%
18:00 +13°C° 0.2 mm 1 mps 740 mmHg 98%
19:00 +13°C° 0.5 mm 2 mps 740 mmHg 98%
20:00 +13°C° 0.5 mm 2 mps 739 mmHg 98%
21:00 +12°C° 0.5 mm 3 mps 739 mmHg 98%
22:00 +13°C° 1 mm 4 mps 739 mmHg 97%
23:00 +13°C° 1 mm 5 mps 738 mmHg 96%

Mañana, 31 Octubre, Sábado

Tiempo Temperatura Precipitaciones Viento Presión Humedad
00:00 +13°C° 1 mm 6 mps 738 mmHg 96%
01:00 +13°C° 0.9 mm 6 mps 737 mmHg 96%
02:00 +12°C° 0.9 mm 7 mps 736 mmHg 95%
03:00 +11°C° 0.9 mm 7 mps 735 mmHg 95%
04:00 +12°C° 0 mm 8 mps 735 mmHg 94%
05:00 +12°C° 0 mm 8 mps 734 mmHg 93%
06:00 +12°C° 0 mm 9 mps 733 mmHg 92%
07:00 +12°C° 1 mm 10 mps 732 mmHg 93%
08:00 +12°C° 1 mm 11 mps 730 mmHg 93%
09:00 +12°C° 1 mm 13 mps 729 mmHg 94%
10:00 +10°C° 1.9 mm 12 mps 729 mmHg 91%
11:00 +9°C° 1.9 mm 12 mps 730 mmHg 88%
12:00 +9°C° 1.9 mm 12 mps 730 mmHg 85%
13:00 +8°C° 0.1 mm 11 mps 731 mmHg 83%
14:00 +8°C° 0.1 mm 11 mps 732 mmHg 81%
15:00 +7°C° 0.1 mm 11 mps 733 mmHg 79%
16:00 +7°C° 0 mm 9 mps 733 mmHg 80%
17:00 +6°C° 0 mm 8 mps 733 mmHg 81%
18:00 +5°C° 0 mm 7 mps 734 mmHg 81%
19:00 +5°C° 0 mm 6 mps 734 mmHg 81%
20:00 +5°C° 0 mm 6 mps 734 mmHg 81%
21:00 +5°C° 0 mm 6 mps 734 mmHg 81%
22:00 +5°C° 0.1 mm 6 mps 734 mmHg 82%
23:00 +5°C° 0.1 mm 7 mps 733 mmHg 84%

Pasado mañana, 1 Noviembre, Domingo

Tiempo Temperatura Precipitaciones Viento Presión Humedad
00:00 +5°C° 0.1 mm 7 mps 733 mmHg 85%
01:00 +6°C° 1.7 mm 8 mps 731 mmHg 88%
02:00 +6°C° 1.7 mm 9 mps 730 mmHg 91%
03:00 +6°C° 1.7 mm 10 mps 728 mmHg 94%
04:00 +7°C° 1.1 mm 10 mps 728 mmHg 95%
05:00 +9°C° 1.1 mm 10 mps 727 mmHg 95%
06:00 +11°C° 1.1 mm 11 mps 726 mmHg 95%
07:00 +11°C° 0.2 mm 11 mps 727 mmHg 91%
08:00 +9°C° 0.2 mm 11 mps 727 mmHg 87%
09:00 +8°C° 0.2 mm 11 mps 728 mmHg 83%
10:00 +8°C° 0 mm 11 mps 729 mmHg 81%
11:00 +8°C° 0 mm 11 mps 729 mmHg 80%
12:00 +8°C° 0 mm 11 mps 730 mmHg 79%
13:00 +8°C° 0.2 mm 10 mps 730 mmHg 82%
14:00 +8°C° 0.2 mm 9 mps 731 mmHg 84%
15:00 +7°C° 0.2 mm 8 mps 731 mmHg 87%
16:00 +8°C° 0.5 mm 7 mps 730 mmHg 90%
17:00 +8°C° 0.5 mm 6 mps 730 mmHg 93%
18:00 +8°C° 0.5 mm 5 mps 729 mmHg 97%
19:00 +10°C° 1.5 mm 7 mps 728 mmHg 96%
20:00 +12°C° 1.5 mm 9 mps 727 mmHg 96%
21:00 +13°C° 1.5 mm 10 mps 726 mmHg 96%
22:00 +13°C° 0.3 mm 11 mps 726 mmHg 95%
23:00 +13°C° 0.3 mm 12 mps 726 mmHg 94%

2 Noviembre, Lunes

Tiempo Temperatura Precipitaciones Viento Presión Humedad
00:00 +14°C° 0.3 mm 13 mps 726 mmHg 93%
01:00 +14°C° 0.1 mm 13 mps 725 mmHg 93%
02:00 +13°C° 0.1 mm 13 mps 724 mmHg 92%
03:00 +13°C° 0.1 mm 12 mps 724 mmHg 92%
04:00 +13°C° 0.3 mm 13 mps 723 mmHg 92%
05:00 +14°C° 0.3 mm 13 mps 722 mmHg 92%
06:00 +14°C° 0.3 mm 13 mps 720 mmHg 92%
07:00 +13°C° 0.2 mm 14 mps 721 mmHg 89%
08:00 +11°C° 0.2 mm 16 mps 721 mmHg 86%
09:00 +10°C° 0.2 mm 17 mps 721 mmHg 82%
10:00 +9°C° 0.2 mm 16 mps 723 mmHg 81%
11:00 +6°C° 0.2 mm 14 mps 725 mmHg 79%
12:00 +5°C° 0.2 mm 12 mps 727 mmHg 77%
13:00 +5°C° 0.3 mm 12 mps 728 mmHg 76%
14:00 +5°C° 0.3 mm 12 mps 729 mmHg 75%
15:00 +5°C° 0.3 mm 12 mps 729 mmHg 74%
16:00 +4°C° 0.3 mm 12 mps 730 mmHg 75%
17:00 +4°C° 0.3 mm 11 mps 731 mmHg 75%
18:00 +3°C° 0.3 mm 11 mps 732 mmHg 76%
19:00 +3°C° 0.2 mm 11 mps 733 mmHg 76%
20:00 +3°C° 0.2 mm 11 mps 734 mmHg 76%
21:00 +3°C° 0.2 mm 11 mps 735 mmHg 76%
22:00 +3°C° 0.2 mm 11 mps 735 mmHg 76%
23:00 +3°C° 0.2 mm 11 mps 736 mmHg 77%

3 Noviembre, Martes

Tiempo Temperatura Precipitaciones Viento Presión Humedad
00:00 +3°C° 0.2 mm 10 mps 737 mmHg 77%
01:00 +3°C° 0.1 mm 9 mps 737 mmHg 79%
02:00 +4°C° 0.1 mm 8 mps 738 mmHg 81%
03:00 +3°C° 0.1 mm 7 mps 738 mmHg 83%
04:00 +3°C° 0.1 mm 6 mps 739 mmHg 85%
05:00 +3°C° 0.1 mm 5 mps 739 mmHg 86%
06:00 +3°C° 0.1 mm 5 mps 740 mmHg 88%
07:00 +5°C° 0.1 mm 4 mps 740 mmHg 88%
08:00 +5°C° 0.1 mm 4 mps 741 mmHg 87%
09:00 +7°C° 0.1 mm 3 mps 741 mmHg 87%
10:00 +7°C° 0.3 mm 3 mps 741 mmHg 85%
11:00 +7°C° 0.3 mm 4 mps 742 mmHg 82%
12:00 +8°C° 0.3 mm 4 mps 742 mmHg 80%
13:00 +7°C° 0.3 mm 5 mps 743 mmHg 80%
14:00 +7°C° 0.3 mm 5 mps 743 mmHg 81%
15:00 +5°C° 0.3 mm 6 mps 743 mmHg 82%
16:00 +5°C° 0 mm 5 mps 743 mmHg 84%
17:00 +3°C° 0 mm 5 mps 743 mmHg 85%
18:00 +3°C° 0 mm 4 mps 744 mmHg 87%
19:00 +3°C° 0 mm 4 mps 744 mmHg 88%
20:00 +1°C° 0 mm 4 mps 744 mmHg 88%
21:00 +2°C° 0 mm 3 mps 744 mmHg 88%
22:00 +2°C° 0 mm 3 mps 744 mmHg 89%
23:00 +2°C° 0 mm 3 mps 744 mmHg 89%

4 Noviembre, Miércoles

Tiempo Temperatura Precipitaciones Viento Presión Humedad
00:00 +3°C° 0 mm 2 mps 744 mmHg 90%
01:00 +2°C° 0 mm 2 mps 744 mmHg 90%
02:00 +3°C° 0 mm 1 mps 744 mmHg 90%
03:00 +3°C° 0 mm 1 mps 744 mmHg 89%
04:00 +3°C° 0 mm 1 mps 744 mmHg 90%
05:00 +3°C° 0 mm 1 mps 744 mmHg 90%
06:00 +4°C° 0 mm 1 mps 745 mmHg 90%
07:00 +4°C° 0 mm 1 mps 745 mmHg 89%
08:00 +5°C° 0 mm 1 mps 746 mmHg 88%
09:00 +5°C° 0 mm 1 mps 746 mmHg 87%
10:00 +7°C° 0 mm 1 mps 747 mmHg 82%
11:00 +7°C° 0 mm 2 mps 747 mmHg 77%
12:00 +8°C° 0 mm 2 mps 748 mmHg 71%
13:00 +8°C° 0 mm 2 mps 748 mmHg 73%
14:00 +8°C° 0 mm 2 mps 749 mmHg 74%
15:00 +8°C° 0 mm 3 mps 749 mmHg 76%
16:00 +5°C° 0 mm 3 mps 749 mmHg 80%
17:00 +4°C° 0 mm 3 mps 750 mmHg 84%
18:00 +3°C° 0 mm 3 mps 750 mmHg 89%
19:00 +2°C° 0 mm 3 mps 751 mmHg 89%
20:00 +3°C° 0 mm 2 mps 751 mmHg 89%
21:00 +3°C° 0 mm 2 mps 752 mmHg 90%
22:00 +2°C° 0 mm 2 mps 752 mmHg 89%
23:00 +2°C° 0 mm 2 mps 752 mmHg 89%
Mostrar más

Necesitamos Su Consentimiento

Meteoprog y nuestros Proveedores de Servicios pueden almacenar y acceder a sus datos personales como cookies, identificadores de dispositivo u otras tecnologías similares de su dispositivo y procesar dichos datos para personalizar contenido y anuncios, además de ofrecer funciones de redes sociales y analizar el tráfico.

  • Almacenar y/o acceder a información en su dispositivo

    Se puede almacenar o acceder a cookies, identificadores de dispositivo u otra información de su dispositivo para los fines anteriormente indicados.

  • Anuncios y contenido personalizados, medición de anuncios y contenido, percepciones del público, y desarrollo de productos

    Los anuncios y el contenido pueden personalizarse en base a su perfil. Se pueden añadir más datos para personalizar mejor los anuncios y contenidos. Se puede medir el rendimiento de los anuncios y contenidos. Se puede obtener la percepción sobre el público que ha visto los anuncios y contenidos. Dichos datos pueden usarse para desarrollar o mejorar la experiencia del usuario, sistemas y software.

Al hacer clic en ‘Estoy De Acuerdo’ usted permitirá el uso de las cookies, identificadores de dispositivo, balizas web u otras tecnologías similares indicadas. Su configuración puede cambiarse desde el navegador de su dispositivo.

Para ciertos fines, los intereses legítimos pueden ser considerados por encima del consentimiento. Puede leer más sobre ello en nuestra Política de Privacidad y Cookies.